Regional Weather Roundup
Issued by NWS

Home | Current Version | Previous Version | Text Only | Print | Product List | Glossary Off
Versions: 1 2 3 4 5 6 7 8 9 10 11 12 13 14 15 16 17 18 19 20 21 22 23 24 25 26 27 28

000
ASUS45 KBOU 300407
RWRCO

WEATHER ROUNDUP FOR COLORADO
NATIONAL WEATHER SERVICE DENVER/BOULDER CO
1000 PM MDT SUN MAY 29 2016

NOTE: "FAIR" INDICATES FEW OR NO CLOUDS BELOW 12000 FEET WITH NO
SIGNIFICANT WEATHER AND/OR OBSTRUCTIONS TO VISIBILITY.

COZ001>005-013-030-031-300500-
...NORTHWEST COLORADO...

CITY           SKY/WX    TMP DP  RH WIND       PRES   REMARKS
CRAIG          FAIR      54  40  59 E7        30.17F
HAYDEN         FAIR      48  37  66 S3        30.21R
MEEKER         FAIR      52  41  66 VRB3      30.18F
MOUNT WERNER   NOT AVBL
STEAMBOAT SPGS FAIR      50  36  57 CALM      30.22R
WALDEN         NOT AVBL
$$

COZ006>008-011-300500-
...WEST CENTRAL VALLEYS...

CITY           SKY/WX    TMP DP  RH WIND       PRES   REMARKS
GRAND JUNCTION FAIR      67  34  29 NE14      30.04R
MONTROSE       FAIR      58  36  43 E7        30.12R
EAGLE          FAIR      54  36  50 E6        30.21R
RIFLE          FAIR      59  37  44 CALM      30.13R
DELTA          FAIR      62  32  32 NE8       30.08R
NUCLA          FAIR      61  30  31 SE10      30.13R
$$

COZ017>023-064>068-300500-
...SOUTHWEST COLORADO...

CITY           SKY/WX    TMP DP  RH WIND       PRES   REMARKS
DURANGO        FAIR      55  23  28 NE7       30.13R
CORTEZ         FAIR      57  30  35 E7        30.08R
PAGOSA SPRINGS FAIR      52  24  33 CALM      30.21R
TELLURIDE      FAIR      49  30  46 SE7       30.32S
WOLF CREEK PAS FAIR      41  18  38 NE3       30.50R
$$

COZ009-010-012-014-032>034-037-058>063-300500-
...CENTRAL COLORADO...

CITY           SKY/WX    TMP DP  RH WIND       PRES   REMARKS
ASPEN          FAIR      47  32  56 SW8       30.24R
BUENA VISTA    FAIR      46  29  51 NW3       30.28R
COPPER MTN     NOT AVBL
BERTHOUD PASS  FAIR      32  23  69 NW8       30.50R WCI  25
COTTONWOOD PAS FAIR      50  27  40 W8        30.38R
GUNNISON       FAIR      48  34  57 N3        30.27R
KREMMLING      MOCLDY    52  36  54 CALM      30.26R
LEADVILLE      FAIR      37  26  64 E5        30.35R
MONARCH PASS   FAIR      39  27  60 N10       30.59R
SALIDA         FAIR      56  29  36 W12       30.32R
SUNLIGHT       FAIR      43  32  65 CALM      30.44R
WILKERSON PASS MOCLDY    41  30  65 E6        30.48R
$$

COZ069>075-300500-
...SAN LUIS VALLEY/SANGRE DE CRISTO MOUNTAINS...

CITY           SKY/WX    TMP DP  RH WIND       PRES   REMARKS
ALAMOSA        FAIR      51  34  52 N6        30.22R
LA VETA PASS   FAIR      45  28  53 N6        30.39S
SAGUACHE       FAIR      46  32  57 NW10      30.27R
$$

COZ035-036-038>040-300500-
...NORTHERN COLORADO FRONT RANGE...

CITY           SKY/WX    TMP DP  RH WIND       PRES   REMARKS
DENVER INTL AP MOCLDY    61  40  45 CALM      30.11S
DMNS CITY PARK   N/A     57  44  60 NE2G9     30.13S
AURORA         MOCLDY    53  42  67 S5        30.15R
FRONT RANGE AP NOT AVBL
ERIE MUNI ARPT FAIR      55  47  76 CALM      30.13R
BOULDER MUN AP FAIR      59  45  58 S3        30.13S
CENTENNIAL     FAIR      56  42  59 S10       30.16R
BROOMFIELD     PTCLDY    55  45  67 W3        30.15R
FORT COLLINS   FAIR      57  45  62 NW6       30.11S
LONGMONT       FAIR      57  48  71 W3        30.13S
$$

COZ041-046-047-076>085-087-088-300500-
...PIKES PEAK/PALMER DIVIDE AND SOUTHERN FOOTHILLS...

CITY           SKY/WX    TMP DP  RH WIND       PRES   REMARKS
COLO. SPRINGS  FAIR      57  42  57 NW5       30.19R
A. F. ACADEMY  FAIR      50  41  71 N5        30.20R
SCHRIEVER AFB  NOT AVBL
ELLICOTT       FAIR     N/A N/A N/A NE9       30.18R
FALCON         FAIR      49  41  73 N3        30.23R
FORT CARSON    FAIR      56  41  57 NE5       30.16R
LIMON          FAIR      58  43  57 VRB5      30.15R
MONUMENT HILL  FAIR      46  41  81 CALM      30.24S
TRINIDAD       FAIR      57  43  59 SE14      30.16R
$$

COZ042>045-048>051-090-091-300500-
...NORTHEAST COLORADO...

CITY           SKY/WX    TMP DP  RH WIND       PRES   REMARKS
GREELEY ARPT   FAIR      59  45  58 W7        30.09F
AKRON          FAIR      58  48  69 E6        30.07R
BURLINGTON     FAIR      57  50  77 S10       30.11R
WRAY           CLOUDY    61  52  72 SE9G20    30.12R
STERLING       FAIR      61  50  67 SE5       30.04R
HOLYOKE        TSTM      61  54  77 SE13G30   30.14
FORT MORGAN    FAIR      60  49  65 N9        30.07R
$$

COZ086-089-092>099-300500-
...SOUTHEAST COLORADO...

CITY           SKY/WX    TMP DP  RH WIND       PRES   REMARKS
PUEBLO         FAIR      61  49  64 E7        30.10R
LA JUNTA       FAIR      65  45  48 S13       30.08R
LAMAR          FAIR      60  50  69 VRB5      30.08R
SPRINGFIELD      N/A     55  49  80 SW12      30.14R
$$




USA.gov is the U.S. government's official web portal to all federal, state and local government web resources and services.